Location: Newark
(41.7475°N, 12.6504°E)
Time: 20:23:52
(UTC+00:00)

N. Korean satellite - Visible Passes

Search period start: 05 December 2019 00:00
Search period end: 15 December 2019 00:00
Orbit: 456 x 506 km, 97.2° (Epoch: 05 December)

Date Brightness Start Highest point End Pass type
(mag) Time Alt. Az. Time Alt. Az. Time Alt. Az.
05 Dec 9.8 04:04:41 10° ENE 04:06:41 14° E 04:08:39 10° SE visible
05 Dec 7.2 05:36:57 10° N 05:40:12 33° WNW 05:43:22 10° SW visible
05 Dec 6.6 16:11:44 10° SSE 16:15:26 87° ENE 16:19:10 10° N visible
06 Dec 6.4 05:11:17 10° N 05:14:51 73° WNW 05:18:20 10° SSW visible
06 Dec 10.0 17:21:50 10° WSW 17:23:39 13° W 17:25:28 10° WNW visible
07 Dec 7.5 04:45:57 10° NNE 04:49:25 49° E 04:52:48 10° S visible
07 Dec 9.1 16:54:54 10° SSW 16:58:03 26° W 17:01:12 10° NW visible
08 Dec 9.1 04:21:01 10° NE 04:23:52 23° E 04:26:41 10° SSE visible
08 Dec 7.5 16:28:54 10° S 16:32:32 54° W 16:36:12 10° NNW visible
09 Dec 10.1 03:57:09 10° ENE 03:58:14 11° E 03:59:19 10° ESE visible
09 Dec 6.9 05:28:30 10° N 05:31:52 41° WNW 05:35:10 10° SW visible
09 Dec 6.6 16:03:26 10° SSE 16:07:07 68° ENE 16:10:48 10° N visible
10 Dec 6.5 05:02:56 10° NNE 05:06:30 87° ESE 05:09:57 10° SSW visible
10 Dec 9.8 17:12:51 10° SW 17:15:14 16° W 17:17:38 10° NW visible
11 Dec 8.1 04:37:42 10° NNE 04:41:00 37° E 04:44:14 10° SSE visible
11 Dec 8.6 16:46:19 10° SSW 16:49:40 32° W 16:53:01 10° NNW visible
12 Dec 9.4 04:12:58 10° NE 04:15:26 18° E 04:17:52 10° SE visible
12 Dec 7.5 05:45:53 10° NNW 05:48:50 25° WNW 05:51:42 10° SW visible
12 Dec 7.0 16:20:29 10° S 16:24:10 70° W 16:27:51 10° NNW visible
13 Dec 6.5 05:20:04 10° N 05:23:30 53° WNW 05:26:52 10° SSW visible
14 Dec 6.8 04:54:36 10° NNE 04:58:05 66° E 05:01:30 10° S visible
14 Dec 9.5 17:04:01 10° SW 17:06:49 20° W 17:09:35 10° NW visible
